Weather History for Bangor, ME

Change the Weather History Date:

Monday, October 11, 2010

  Actual Average Record
Temperature  
Mean Temperature 49 °F 49 °F  
Max Temperature 60 °F 60 °F 80 °F (1930)
Min Temperature 37 °F 38 °F 22 °F (1952)
Degree Days  
Heating Degree Days 16 16  
Month to date heating degree days 145 157  
Since 1 July heating degree days 304 429  
Cooling Degree Days 0 0  
Month to date cooling degree days 0 0  
Year to date cooling degree days 537 317  
Moisture  
Dew Point 34 °F    
Average Humidity 56    
Maximum Humidity 79    
Minimum Humidity 33    
Precipitation  
Precipitation 0.00 in 0.14 in 0.97 in (1950)
Month to date precipitation 2.03 1.52  
Year to date precipitation 30.49 31.60  
Snow  
Snow 0.00 in 0.00 in 0.00 in (2002)
Month to date snowfall 0.0 0.0  
Since 1 July snowfall 0.0 0.0  
Since 1 September snowfall 0.0 0.0  
Snow Depth 0.00 in    
Sea Level Pressure  
Sea Level Pressure 29.69 in    
Wind  
Wind Speed 5 mph (WNW)    
Max Wind Speed 23 mph    
Max Gust Speed 28 mph    
Visibility 10 miles    
Events      
T = Trace of Precipitation, MM = Missing Value Source: NWS Daily Summary

Daily Weather History Graph

Daily Weather History Graph

Search for Another Location

Airport:

Trip Planner

Search our weather history database for the weather conditions in past years. The results will help you decide how hot, cold, wet, or windy it might be!

Date:

Astronomy

Oct. 11, 2010 Rise Set
Actual Time 6:45 AM EDT 5:57 PM EDT
Civil Twilight 6:16 AM EDT 6:26 PM EDT
Nautical Twilight 5:42 AM EDT 7:00 PM EDT
Astronomical Twilight 5:08 AM EDT 7:34 PM EDT
Moon 11:32 AM EDT (10/11) 8:17 PM EDT (10/11)
Length of Visible Light 12h 10m
Length of Day
11h 12m
Waxing Crescent, 19% of the Moon is Illuminated
Oct 11
Waxing Crescent
Oct 14
First Quarter
Oct 22
Full
Oct 30
Last Quarter
Nov 6
New

Hourly Weather History & Observations

Time (EDT) Temp. Windchill Dew Point Humidity Pressure Visibility Wind Dir Wind Speed Gust Speed Precip Events Conditions
12:53 AM 42.1 °F - 34.0 °F 73% 29.59 in 10.0 mi Calm Calm - N/A   Overcast
1:53 AM 46.0 °F 44.8 °F 30.9 °F 56% 29.60 in 10.0 mi West 3.5 mph - N/A   Scattered Clouds
2:53 AM 45.0 °F 41.8 °F 32.0 °F 60% 29.61 in 10.0 mi WNW 5.8 mph - N/A   Partly Cloudy
3:53 AM 44.1 °F - 34.0 °F 68% 29.62 in 10.0 mi Calm Calm - N/A   Mostly Cloudy
4:53 AM 44.1 °F 40.1 °F 35.1 °F 71% 29.63 in 10.0 mi WSW 6.9 mph - N/A   Overcast
5:53 AM 44.1 °F 41.5 °F 34.0 °F 68% 29.64 in 10.0 mi West 4.6 mph - N/A   Mostly Cloudy
6:53 AM 41.0 °F 38.0 °F 34.0 °F 76% 29.65 in 10.0 mi West 4.6 mph - N/A   Scattered Clouds
7:53 AM 44.1 °F 40.8 °F 36.0 °F 73% 29.67 in 10.0 mi West 5.8 mph - N/A   Partly Cloudy
8:53 AM 50.0 °F - 37.9 °F 63% 29.68 in 10.0 mi Calm Calm - N/A   Partly Cloudy
9:53 AM 53.1 °F - 37.9 °F 57% 29.68 in 10.0 mi West 8.1 mph 16.1 mph N/A   Partly Cloudy
10:53 AM 55.9 °F - 36.0 °F 47% 29.68 in 10.0 mi WNW 10.4 mph 21.9 mph N/A   Partly Cloudy
11:53 AM 57.9 °F - 34.0 °F 41% 29.68 in 10.0 mi WNW 11.5 mph 24.2 mph N/A   Scattered Clouds
12:53 PM 57.9 °F - 32.0 °F 37% 29.68 in 10.0 mi NW 13.8 mph 23.0 mph N/A   Scattered Clouds
1:53 PM 59.0 °F - 30.9 °F 35% 29.67 in 10.0 mi WNW 13.8 mph - N/A   Scattered Clouds
2:53 PM 59.0 °F - 30.9 °F 35% 29.68 in 10.0 mi NW 15.0 mph 24.2 mph N/A   Scattered Clouds
3:53 PM 57.9 °F - 32.0 °F 37% 29.69 in 10.0 mi WNW 11.5 mph - N/A   Partly Cloudy
4:53 PM 57.0 °F - 33.1 °F 40% 29.71 in 10.0 mi WNW 11.5 mph 17.3 mph N/A   Partly Cloudy
5:53 PM 54.0 °F - 34.0 °F 47% 29.73 in 10.0 mi NW 6.9 mph - N/A   Partly Cloudy
6:53 PM 48.0 °F - 35.1 °F 61% 29.77 in 10.0 mi North 5.8 mph - N/A   Partly Cloudy
7:53 PM 46.9 °F - 36.0 °F 66% 29.78 in 10.0 mi NW 3.5 mph - N/A   Partly Cloudy
8:53 PM 44.1 °F - 36.0 °F 73% 29.80 in 10.0 mi Calm Calm - N/A   Scattered Clouds
9:53 PM 46.9 °F - 36.0 °F 66% 29.81 in 10.0 mi NW 5.8 mph - N/A   Scattered Clouds
10:53 PM 43.0 °F - 35.1 °F 74% 29.82 in 10.0 mi Calm Calm - N/A   Scattered Clouds
11:53 PM 41.0 °F - 35.1 °F 79% 29.81 in 10.0 mi Calm Calm - N/A   Scattered Clouds